Terminal Aerodrome Forecast
Issued by NWS Topeka, KS

Home | Current Version | Previous Version | Graphics & Text | Print | Product List | Glossary On
Versions: 1 2 3 4 5 6 7 8 9 10 11 12
000
FTUS43 KTOP 300500
TAFTOP
TAF
KTOP 300520Z 3006/3106 03002KT P6SM SCT070
     FM301100 04003KT P6SM BKN090=

USA.gov is the U.S. government's official web portal to all federal, state and local government web resources and services.